owner,sensor,date,latitude,longitude,air_pressure(mBar),qcFlag 
WAVCIS,ioos:station:WAVCIS:CSI09:1,2016-08-01T00:00:00Z,29.1015,-89.9782,1016.71,11111222 
WAVCIS,ioos:station:WAVCIS:CSI09:1,2016-08-01T01:00:00Z,29.1015,-89.9782,1016.76,11111222 
WAVCIS,ioos:station:WAVCIS:CSI09:1,2016-08-01T02:00:00Z,29.1015,-89.9782,1016.64,11111222 
WAVCIS,ioos:station:WAVCIS:CSI09:1,2016-08-01T03:00:00Z,29.1015,-89.9782,1017.15,11111222 
WAVCIS,ioos:station:WAVCIS:CSI09:1,2016-08-01T04:00:00Z,29.1015,-89.9782,1017.5,11111222 
WAVCIS,ioos:station:WAVCIS:CSI09:1,2016-08-01T05:00:00Z,29.1015,-89.9782,1017.49,11111222 
WAVCIS,ioos:station:WAVCIS:CSI09:1,2016-08-01T06:00:00Z,29.1015,-89.9782,1017.84,11111222 
WAVCIS,ioos:station:WAVCIS:CSI09:1,2016-08-01T07:00:00Z,29.1015,-89.9782,1017.32,11111222 
WAVCIS,ioos:station:WAVCIS:CSI09:1,2016-08-01T08:00:00Z,29.1015,-89.9782,1017.23,11111222 
WAVCIS,ioos:station:WAVCIS:CSI09:1,2016-08-01T09:00:00Z,29.1015,-89.9782,1016.86,11111222 
WAVCIS,ioos:station:WAVCIS:CSI09:1,2016-08-01T10:00:00Z,29.1015,-89.9782,1016.94,11111222 
WAVCIS,ioos:station:WAVCIS:CSI09:1,2016-08-01T11:00:00Z,29.1015,-89.9782,1017.38,11111222 
WAVCIS,ioos:station:WAVCIS:CSI09:1,2016-08-01T12:00:00Z,29.1015,-89.9782,1017.75,11111222 
WAVCIS,ioos:station:WAVCIS:CSI09:1,2016-08-01T13:00:00Z,29.1015,-89.9782,1018.15,11111222 
WAVCIS,ioos:station:WAVCIS:CSI09:1,2016-08-01T14:00:00Z,29.1015,-89.9782,1018.85,11111222 
WAVCIS,ioos:station:WAVCIS:CSI09:1,2016-08-01T15:00:00Z,29.1015,-89.9782,1018.97,11111222 
WAVCIS,ioos:station:WAVCIS:CSI09:1,2016-08-01T16:00:00Z,29.1015,-89.9782,1019.34,11111222 
WAVCIS,ioos:station:WAVCIS:CSI09:1,2016-08-01T17:00:00Z,29.1015,-89.9782,1019.23,11111222 
WAVCIS,ioos:station:WAVCIS:CSI09:1,2016-08-01T18:00:00Z,29.1015,-89.9782,1019.09,11111222 
WAVCIS,ioos:station:WAVCIS:CSI09:1,2016-08-01T19:00:00Z,29.1015,-89.9782,1018.84,11111222 
WAVCIS,ioos:station:WAVCIS:CSI09:1,2016-08-01T20:00:00Z,29.1015,-89.9782,1018.3,11111222 
WAVCIS,ioos:station:WAVCIS:CSI09:1,2016-08-01T21:00:00Z,29.1015,-89.9782,1017.95,11111222 
WAVCIS,ioos:station:WAVCIS:CSI09:1,2016-08-01T22:00:00Z,29.1015,-89.9782,1017.35,11111222 
WAVCIS,ioos:station:WAVCIS:CSI09:1,2016-08-01T23:00:00Z,29.1015,-89.9782,1017.15,11111222 
WAVCIS,ioos:station:WAVCIS:CSI09:1,2016-08-02T00:00:00Z,29.1015,-89.9782,1016.97,11111222 
WAVCIS,ioos:station:WAVCIS:CSI09:1,2016-08-02T01:00:00Z,29.1015,-89.9782,1017.31,11111222 
WAVCIS,ioos:station:WAVCIS:CSI09:1,2016-08-02T02:00:00Z,29.1015,-89.9782,1017.65,11111222 
WAVCIS,ioos:station:WAVCIS:CSI09:1,2016-08-02T03:00:00Z,29.1015,-89.9782,1018.48,11111222 
WAVCIS,ioos:station:WAVCIS:CSI09:1,2016-08-02T04:00:00Z,29.1015,-89.9782,1018.92,11111222 
WAVCIS,ioos:station:WAVCIS:CSI09:1,2016-08-02T05:00:00Z,29.1015,-89.9782,1018.72,11111222 
WAVCIS,ioos:station:WAVCIS:CSI09:1,2016-08-02T06:00:00Z,29.1015,-89.9782,1018.19,11111222 
WAVCIS,ioos:station:WAVCIS:CSI09:1,2016-08-02T07:00:00Z,29.1015,-89.9782,1017.86,11111222 
WAVCIS,ioos:station:WAVCIS:CSI09:1,2016-08-02T08:00:00Z,29.1015,-89.9782,1017.71,11111222 
WAVCIS,ioos:station:WAVCIS:CSI09:1,2016-08-02T09:00:00Z,29.1015,-89.9782,1017.99,11111222 
WAVCIS,ioos:station:WAVCIS:CSI09:1,2016-08-02T10:00:00Z,29.1015,-89.9782,1017.92,11111222 
WAVCIS,ioos:station:WAVCIS:CSI09:1,2016-08-02T11:00:00Z,29.1015,-89.9782,1018.26,11111222 
WAVCIS,ioos:station:WAVCIS:CSI09:1,2016-08-02T12:00:00Z,29.1015,-89.9782,1018.59,11111222 
WAVCIS,ioos:station:WAVCIS:CSI09:1,2016-08-02T13:00:00Z,29.1015,-89.9782,1018.95,11111222 
WAVCIS,ioos:station:WAVCIS:CSI09:1,2016-08-02T14:00:00Z,29.1015,-89.9782,1019.12,11111222 
WAVCIS,ioos:station:WAVCIS:CSI09:1,2016-08-02T15:00:00Z,29.1015,-89.9782,1019.38,11111222 
WAVCIS,ioos:station:WAVCIS:CSI09:1,2016-08-02T16:00:00Z,29.1015,-89.9782,1019.99,11111222 
WAVCIS,ioos:station:WAVCIS:CSI09:1,2016-08-02T17:00:00Z,29.1015,-89.9782,1020.09,11111222 
WAVCIS,ioos:station:WAVCIS:CSI09:1,2016-08-02T18:00:00Z,29.1015,-89.9782,1019.54,11111222 
WAVCIS,ioos:station:WAVCIS:CSI09:1,2016-08-02T19:00:00Z,29.1015,-89.9782,1019.01,11111222 
WAVCIS,ioos:station:WAVCIS:CSI09:1,2016-08-02T20:00:00Z,29.1015,-89.9782,1018.42,11111222 
WAVCIS,ioos:station:WAVCIS:CSI09:1,2016-08-02T21:00:00Z,29.1015,-89.9782,1017.95,11111222 
WAVCIS,ioos:station:WAVCIS:CSI09:1,2016-08-02T22:00:00Z,29.1015,-89.9782,1017.16,11111222 
WAVCIS,ioos:station:WAVCIS:CSI09:1,2016-08-02T23:00:00Z,29.1015,-89.9782,1016.84,11111222 
WAVCIS,ioos:station:WAVCIS:CSI09:1,2016-08-03T00:00:00Z,29.1015,-89.9782,1016.03,11111222 
WAVCIS,ioos:station:WAVCIS:CSI09:1,2016-08-03T01:00:00Z,29.1015,-89.9782,1016.4,11111222 
WAVCIS,ioos:station:WAVCIS:CSI09:1,2016-08-03T02:00:00Z,29.1015,-89.9782,1016.72,11111222 
WAVCIS,ioos:station:WAVCIS:CSI09:1,2016-08-03T03:00:00Z,29.1015,-89.9782,1017.31,11111222 
WAVCIS,ioos:station:WAVCIS:CSI09:1,2016-08-03T04:00:00Z,29.1015,-89.9782,1017.05,11111222 
WAVCIS,ioos:station:WAVCIS:CSI09:1,2016-08-03T05:00:00Z,29.1015,-89.9782,1016.84,11111222 
WAVCIS,ioos:station:WAVCIS:CSI09:1,2016-08-03T06:00:00Z,29.1015,-89.9782,1016.5,11111222 
WAVCIS,ioos:station:WAVCIS:CSI09:1,2016-08-03T07:00:00Z,29.1015,-89.9782,1016.38,11111222 
WAVCIS,ioos:station:WAVCIS:CSI09:1,2016-08-03T08:00:00Z,29.1015,-89.9782,1016.42,11111222 
WAVCIS,ioos:station:WAVCIS:CSI09:1,2016-08-03T09:00:00Z,29.1015,-89.9782,1015.98,11111222 
WAVCIS,ioos:station:WAVCIS:CSI09:1,2016-08-03T10:00:00Z,29.1015,-89.9782,1015.79,11111222 
WAVCIS,ioos:station:WAVCIS:CSI09:1,2016-08-03T11:00:00Z,29.1015,-89.9782,1016.36,11111222 
WAVCIS,ioos:station:WAVCIS:CSI09:1,2016-08-03T12:00:00Z,29.1015,-89.9782,1016.32,11111222 
WAVCIS,ioos:station:WAVCIS:CSI09:1,2016-08-03T13:00:00Z,29.1015,-89.9782,1016.96,11111222 
WAVCIS,ioos:station:WAVCIS:CSI09:1,2016-08-03T14:00:00Z,29.1015,-89.9782,1017.42,11111222 
WAVCIS,ioos:station:WAVCIS:CSI09:1,2016-08-03T15:00:00Z,29.1015,-89.9782,1017.47,11111222 
WAVCIS,ioos:station:WAVCIS:CSI09:1,2016-08-03T16:00:00Z,29.1015,-89.9782,1017.93,11111222 
WAVCIS,ioos:station:WAVCIS:CSI09:1,2016-08-03T17:00:00Z,29.1015,-89.9782,1017.68,11111222 
WAVCIS,ioos:station:WAVCIS:CSI09:1,2016-08-03T18:00:00Z,29.1015,-89.9782,1017.02,11111222 
WAVCIS,ioos:station:WAVCIS:CSI09:1,2016-08-03T19:00:00Z,29.1015,-89.9782,1016.03,11111222 
WAVCIS,ioos:station:WAVCIS:CSI09:1,2016-08-03T20:00:00Z,29.1015,-89.9782,1015.47,11111222 
WAVCIS,ioos:station:WAVCIS:CSI09:1,2016-08-03T21:00:00Z,29.1015,-89.9782,1014.9,11111222 
WAVCIS,ioos:station:WAVCIS:CSI09:1,2016-08-03T22:00:00Z,29.1015,-89.9782,1014.53,11111222 
WAVCIS,ioos:station:WAVCIS:CSI09:1,2016-08-03T23:00:00Z,29.1015,-89.9782,1014.23,11111222 
WAVCIS,ioos:station:WAVCIS:CSI09:1,2016-08-04T00:00:00Z,29.1015,-89.9782,1014.17,11111222 
WAVCIS,ioos:station:WAVCIS:CSI09:1,2016-08-04T01:00:00Z,29.1015,-89.9782,1014.29,11111222 
WAVCIS,ioos:station:WAVCIS:CSI09:1,2016-08-04T02:00:00Z,29.1015,-89.9782,1014.73,11111222 
WAVCIS,ioos:station:WAVCIS:CSI09:1,2016-08-04T03:00:00Z,29.1015,-89.9782,1015.12,11111222 
WAVCIS,ioos:station:WAVCIS:CSI09:1,2016-08-04T04:00:00Z,29.1015,-89.9782,1015.09,11111222 
WAVCIS,ioos:station:WAVCIS:CSI09:1,2016-08-04T05:00:00Z,29.1015,-89.9782,1014.96,11111222 
WAVCIS,ioos:station:WAVCIS:CSI09:1,2016-08-04T06:00:00Z,29.1015,-89.9782,1014.77,11111222 
WAVCIS,ioos:station:WAVCIS:CSI09:1,2016-08-04T07:00:00Z,29.1015,-89.9782,1014.39,11111222 
WAVCIS,ioos:station:WAVCIS:CSI09:1,2016-08-04T08:00:00Z,29.1015,-89.9782,1013.8,11111222 
WAVCIS,ioos:station:WAVCIS:CSI09:1,2016-08-04T09:00:00Z,29.1015,-89.9782,1013.75,11111222 
WAVCIS,ioos:station:WAVCIS:CSI09:1,2016-08-04T10:00:00Z,29.1015,-89.9782,1014.21,11111222 
WAVCIS,ioos:station:WAVCIS:CSI09:1,2016-08-04T11:00:00Z,29.1015,-89.9782,1014.58,11111222 
WAVCIS,ioos:station:WAVCIS:CSI09:1,2016-08-04T12:00:00Z,29.1015,-89.9782,1015.15,11111222 
WAVCIS,ioos:station:WAVCIS:CSI09:1,2016-08-04T13:00:00Z,29.1015,-89.9782,1015.27,11111222 
WAVCIS,ioos:station:WAVCIS:CSI09:1,2016-08-04T14:00:00Z,29.1015,-89.9782,1015.56,11111222 
WAVCIS,ioos:station:WAVCIS:CSI09:1,2016-08-04T15:00:00Z,29.1015,-89.9782,1016.1,11111222 
WAVCIS,ioos:station:WAVCIS:CSI09:1,2016-08-04T16:00:00Z,29.1015,-89.9782,1016.19,11111222 
WAVCIS,ioos:station:WAVCIS:CSI09:1,2016-08-04T17:00:00Z,29.1015,-89.9782,1015.73,11111222 
WAVCIS,ioos:station:WAVCIS:CSI09:1,2016-08-04T18:00:00Z,29.1015,-89.9782,1016.06,11111222 
WAVCIS,ioos:station:WAVCIS:CSI09:1,2016-08-04T19:00:00Z,29.1015,-89.9782,1015.59,11111222 
WAVCIS,ioos:station:WAVCIS:CSI09:1,2016-08-04T20:00:00Z,29.1015,-89.9782,1014.78,11111222 
WAVCIS,ioos:station:WAVCIS:CSI09:1,2016-08-04T21:00:00Z,29.1015,-89.9782,1014.3,11111222 
WAVCIS,ioos:station:WAVCIS:CSI09:1,2016-08-04T22:00:00Z,29.1015,-89.9782,1014.6,11111222 
WAVCIS,ioos:station:WAVCIS:CSI09:1,2016-08-04T23:00:00Z,29.1015,-89.9782,1014.46,11111222 
WAVCIS,ioos:station:WAVCIS:CSI09:1,2016-08-05T00:00:00Z,29.1015,-89.9782,1013.77,11111222 
WAVCIS,ioos:station:WAVCIS:CSI09:1,2016-08-05T01:00:00Z,29.1015,-89.9782,1013.83,11111222 
WAVCIS,ioos:station:WAVCIS:CSI09:1,2016-08-05T02:00:00Z,29.1015,-89.9782,1014.16,11111222 
WAVCIS,ioos:station:WAVCIS:CSI09:1,2016-08-05T03:00:00Z,29.1015,-89.9782,1014.69,11111222 
WAVCIS,ioos:station:WAVCIS:CSI09:1,2016-08-05T04:00:00Z,29.1015,-89.9782,1014.66,11111222 
WAVCIS,ioos:station:WAVCIS:CSI09:1,2016-08-05T05:00:00Z,29.1015,-89.9782,1014.51,11111222 
WAVCIS,ioos:station:WAVCIS:CSI09:1,2016-08-05T06:00:00Z,29.1015,-89.9782,1014.07,11111222 
WAVCIS,ioos:station:WAVCIS:CSI09:1,2016-08-05T07:00:00Z,29.1015,-89.9782,1013.84,11111222 
WAVCIS,ioos:station:WAVCIS:CSI09:1,2016-08-05T08:00:00Z,29.1015,-89.9782,1013.75,11111222 
WAVCIS,ioos:station:WAVCIS:CSI09:1,2016-08-05T09:00:00Z,29.1015,-89.9782,1013.93,11111222 
WAVCIS,ioos:station:WAVCIS:CSI09:1,2016-08-05T10:00:00Z,29.1015,-89.9782,1014.01,11111222 
WAVCIS,ioos:station:WAVCIS:CSI09:1,2016-08-05T11:00:00Z,29.1015,-89.9782,1014.57,11111222 
WAVCIS,ioos:station:WAVCIS:CSI09:1,2016-08-05T12:00:00Z,29.1015,-89.9782,1014.81,11111222 
WAVCIS,ioos:station:WAVCIS:CSI09:1,2016-08-05T13:00:00Z,29.1015,-89.9782,1015.08,11111222 
WAVCIS,ioos:station:WAVCIS:CSI09:1,2016-08-05T14:00:00Z,29.1015,-89.9782,1015.41,11111222 
WAVCIS,ioos:station:WAVCIS:CSI09:1,2016-08-05T15:00:00Z,29.1015,-89.9782,1015.88,11111222 
WAVCIS,ioos:station:WAVCIS:CSI09:1,2016-08-05T16:00:00Z,29.1015,-89.9782,1016.25,11111222 
WAVCIS,ioos:station:WAVCIS:CSI09:1,2016-08-05T17:00:00Z,29.1015,-89.9782,1016.29,11111222 
WAVCIS,ioos:station:WAVCIS:CSI09:1,2016-08-05T18:00:00Z,29.1015,-89.9782,1016.17,11111222 
WAVCIS,ioos:station:WAVCIS:CSI09:1,2016-08-05T19:00:00Z,29.1015,-89.9782,1015.82,11111222 
WAVCIS,ioos:station:WAVCIS:CSI09:1,2016-08-05T20:00:00Z,29.1015,-89.9782,1015.24,11111222 
WAVCIS,ioos:station:WAVCIS:CSI09:1,2016-08-05T21:00:00Z,29.1015,-89.9782,1014.72,11111222 
WAVCIS,ioos:station:WAVCIS:CSI09:1,2016-08-05T22:00:00Z,29.1015,-89.9782,1014.1,11111222 
WAVCIS,ioos:station:WAVCIS:CSI09:1,2016-08-05T23:00:00Z,29.1015,-89.9782,1013.99,11111222 
WAVCIS,ioos:station:WAVCIS:CSI09:1,2016-08-06T00:00:00Z,29.1015,-89.9782,1013.94,11111222 
WAVCIS,ioos:station:WAVCIS:CSI09:1,2016-08-06T01:00:00Z,29.1015,-89.9782,1014.55,11111222 
WAVCIS,ioos:station:WAVCIS:CSI09:1,2016-08-06T02:00:00Z,29.1015,-89.9782,1015.07,11111222 
WAVCIS,ioos:station:WAVCIS:CSI09:1,2016-08-06T03:00:00Z,29.1015,-89.9782,1015.2,11111222 
WAVCIS,ioos:station:WAVCIS:CSI09:1,2016-08-06T04:00:00Z,29.1015,-89.9782,1014.74,11111222 
WAVCIS,ioos:station:WAVCIS:CSI09:1,2016-08-06T05:00:00Z,29.1015,-89.9782,1014.54,11111222 
WAVCIS,ioos:station:WAVCIS:CSI09:1,2016-08-06T06:00:00Z,29.1015,-89.9782,1014.38,11111222 
WAVCIS,ioos:station:WAVCIS:CSI09:1,2016-08-06T07:00:00Z,29.1015,-89.9782,1014.19,11111222 
WAVCIS,ioos:station:WAVCIS:CSI09:1,2016-08-06T08:00:00Z,29.1015,-89.9782,1014.25,11111222 
WAVCIS,ioos:station:WAVCIS:CSI09:1,2016-08-06T09:00:00Z,29.1015,-89.9782,1014.32,11111222 
WAVCIS,ioos:station:WAVCIS:CSI09:1,2016-08-06T10:00:00Z,29.1015,-89.9782,1014.49,11111222 
WAVCIS,ioos:station:WAVCIS:CSI09:1,2016-08-06T11:00:00Z,29.1015,-89.9782,1014.77,11111222 
WAVCIS,ioos:station:WAVCIS:CSI09:1,2016-08-06T12:00:00Z,29.1015,-89.9782,1015.14,11111222 
WAVCIS,ioos:station:WAVCIS:CSI09:1,2016-08-06T13:00:00Z,29.1015,-89.9782,1015.35,11111222 
WAVCIS,ioos:station:WAVCIS:CSI09:1,2016-08-06T14:00:00Z,29.1015,-89.9782,1015.54,11111222 
WAVCIS,ioos:station:WAVCIS:CSI09:1,2016-08-06T15:00:00Z,29.1015,-89.9782,1015.41,11111222 
WAVCIS,ioos:station:WAVCIS:CSI09:1,2016-08-06T16:00:00Z,29.1015,-89.9782,1015.79,11111222 
WAVCIS,ioos:station:WAVCIS:CSI09:1,2016-08-06T17:00:00Z,29.1015,-89.9782,1015.69,11111222 
WAVCIS,ioos:station:WAVCIS:CSI09:1,2016-08-06T18:00:00Z,29.1015,-89.9782,1015.3,11111222 
WAVCIS,ioos:station:WAVCIS:CSI09:1,2016-08-06T19:00:00Z,29.1015,-89.9782,1015.02,11111222 
WAVCIS,ioos:station:WAVCIS:CSI09:1,2016-08-06T20:00:00Z,29.1015,-89.9782,1014.57,11111222 
WAVCIS,ioos:station:WAVCIS:CSI09:1,2016-08-06T21:00:00Z,29.1015,-89.9782,1014.01,11111222 
WAVCIS,ioos:station:WAVCIS:CSI09:1,2016-08-06T22:00:00Z,29.1015,-89.9782,1013.52,11111222 
WAVCIS,ioos:station:WAVCIS:CSI09:1,2016-08-06T23:00:00Z,29.1015,-89.9782,1013.05,11111222 
WAVCIS,ioos:station:WAVCIS:CSI09:1,2016-08-07T00:00:00Z,29.1015,-89.9782,1013.23,11111222 
WAVCIS,ioos:station:WAVCIS:CSI09:1,2016-08-07T01:00:00Z,29.1015,-89.9782,1013.17,11111222 
WAVCIS,ioos:station:WAVCIS:CSI09:1,2016-08-07T02:00:00Z,29.1015,-89.9782,1013.85,11111222 
WAVCIS,ioos:station:WAVCIS:CSI09:1,2016-08-07T03:00:00Z,29.1015,-89.9782,1014.61,11111222 
WAVCIS,ioos:station:WAVCIS:CSI09:1,2016-08-07T04:00:00Z,29.1015,-89.9782,1014.61,11111222 
WAVCIS,ioos:station:WAVCIS:CSI09:1,2016-08-07T05:00:00Z,29.1015,-89.9782,1014.66,11111222 
WAVCIS,ioos:station:WAVCIS:CSI09:1,2016-08-07T06:00:00Z,29.1015,-89.9782,1013.26,11111222 
WAVCIS,ioos:station:WAVCIS:CSI09:1,2016-08-07T07:00:00Z,29.1015,-89.9782,1012.04,11111222 
WAVCIS,ioos:station:WAVCIS:CSI09:1,2016-08-07T08:00:00Z,29.1015,-89.9782,1012.76,11111222 
WAVCIS,ioos:station:WAVCIS:CSI09:1,2016-08-07T09:00:00Z,29.1015,-89.9782,1012.86,11111222 
WAVCIS,ioos:station:WAVCIS:CSI09:1,2016-08-07T10:00:00Z,29.1015,-89.9782,1013.35,11111222 
WAVCIS,ioos:station:WAVCIS:CSI09:1,2016-08-07T11:00:00Z,29.1015,-89.9782,1013.63,11111222 
WAVCIS,ioos:station:WAVCIS:CSI09:1,2016-08-07T12:00:00Z,29.1015,-89.9782,1013.9,11111222 
WAVCIS,ioos:station:WAVCIS:CSI09:1,2016-08-07T13:00:00Z,29.1015,-89.9782,1014.51,11111222 
WAVCIS,ioos:station:WAVCIS:CSI09:1,2016-08-07T14:00:00Z,29.1015,-89.9782,1014.43,11111222 
WAVCIS,ioos:station:WAVCIS:CSI09:1,2016-08-07T15:00:00Z,29.1015,-89.9782,1015.11,11111222 
WAVCIS,ioos:station:WAVCIS:CSI09:1,2016-08-07T16:00:00Z,29.1015,-89.9782,1014.71,11111222 
WAVCIS,ioos:station:WAVCIS:CSI09:1,2016-08-07T17:00:00Z,29.1015,-89.9782,1014.61,11111222 
WAVCIS,ioos:station:WAVCIS:CSI09:1,2016-08-07T18:00:00Z,29.1015,-89.9782,1015.14,11111222 
WAVCIS,ioos:station:WAVCIS:CSI09:1,2016-08-07T19:00:00Z,29.1015,-89.9782,1014.44,11111222 
WAVCIS,ioos:station:WAVCIS:CSI09:1,2016-08-07T20:00:00Z,29.1015,-89.9782,1014.02,11111222 
WAVCIS,ioos:station:WAVCIS:CSI09:1,2016-08-07T21:00:00Z,29.1015,-89.9782,1012.65,11111222 
WAVCIS,ioos:station:WAVCIS:CSI09:1,2016-08-07T22:00:00Z,29.1015,-89.9782,1012.23,11111222 
WAVCIS,ioos:station:WAVCIS:CSI09:1,2016-08-07T23:00:00Z,29.1015,-89.9782,1011.6,11111222 
WAVCIS,ioos:station:WAVCIS:CSI09:1,2016-08-08T00:00:00Z,29.1015,-89.9782,1011.59,11111222 
WAVCIS,ioos:station:WAVCIS:CSI09:1,2016-08-08T01:00:00Z,29.1015,-89.9782,1012.11,11111222 
WAVCIS,ioos:station:WAVCIS:CSI09:1,2016-08-08T02:00:00Z,29.1015,-89.9782,1012.53,11111222 
WAVCIS,ioos:station:WAVCIS:CSI09:1,2016-08-08T03:00:00Z,29.1015,-89.9782,1012.55,11111222 
WAVCIS,ioos:station:WAVCIS:CSI09:1,2016-08-08T04:00:00Z,29.1015,-89.9782,1012.44,11111222 
WAVCIS,ioos:station:WAVCIS:CSI09:1,2016-08-08T05:00:00Z,29.1015,-89.9782,1012.78,11111222 
WAVCIS,ioos:station:WAVCIS:CSI09:1,2016-08-08T06:00:00Z,29.1015,-89.9782,1012.93,11111222 
WAVCIS,ioos:station:WAVCIS:CSI09:1,2016-08-08T07:00:00Z,29.1015,-89.9782,1012.39,11111222 
WAVCIS,ioos:station:WAVCIS:CSI09:1,2016-08-08T08:00:00Z,29.1015,-89.9782,1012.2,11111222 
WAVCIS,ioos:station:WAVCIS:CSI09:1,2016-08-08T09:00:00Z,29.1015,-89.9782,1011.74,11111222 
WAVCIS,ioos:station:WAVCIS:CSI09:1,2016-08-08T10:00:00Z,29.1015,-89.9782,1011.86,11111222 
WAVCIS,ioos:station:WAVCIS:CSI09:1,2016-08-08T11:00:00Z,29.1015,-89.9782,1011.35,11111222 
WAVCIS,ioos:station:WAVCIS:CSI09:1,2016-08-08T12:00:00Z,29.1015,-89.9782,1011.21,11111222 
WAVCIS,ioos:station:WAVCIS:CSI09:1,2016-08-08T13:00:00Z,29.1015,-89.9782,1011.53,11111222 
WAVCIS,ioos:station:WAVCIS:CSI09:1,2016-08-08T14:00:00Z,29.1015,-89.9782,1012.45,11111222 
WAVCIS,ioos:station:WAVCIS:CSI09:1,2016-08-08T15:00:00Z,29.1015,-89.9782,1012.93,11111222 
WAVCIS,ioos:station:WAVCIS:CSI09:1,2016-08-08T16:00:00Z,29.1015,-89.9782,1013.3,11111222 
WAVCIS,ioos:station:WAVCIS:CSI09:1,2016-08-08T17:00:00Z,29.1015,-89.9782,1013.17,11111222 
WAVCIS,ioos:station:WAVCIS:CSI09:1,2016-08-08T18:00:00Z,29.1015,-89.9782,1012.36,11111222 
WAVCIS,ioos:station:WAVCIS:CSI09:1,2016-08-08T19:00:00Z,29.1015,-89.9782,1012.04,11111222 
WAVCIS,ioos:station:WAVCIS:CSI09:1,2016-08-08T20:00:00Z,29.1015,-89.9782,1011.69,11111222 
WAVCIS,ioos:station:WAVCIS:CSI09:1,2016-08-08T21:00:00Z,29.1015,-89.9782,1011.16,11111222 
WAVCIS,ioos:station:WAVCIS:CSI09:1,2016-08-08T22:00:00Z,29.1015,-89.9782,1011.0,11111222 
WAVCIS,ioos:station:WAVCIS:CSI09:1,2016-08-08T23:00:00Z,29.1015,-89.9782,1010.79,11111222 
WAVCIS,ioos:station:WAVCIS:CSI09:1,2016-08-09T00:00:00Z,29.1015,-89.9782,1010.5,11111222 
WAVCIS,ioos:station:WAVCIS:CSI09:1,2016-08-09T01:00:00Z,29.1015,-89.9782,1011.03,11111222 
WAVCIS,ioos:station:WAVCIS:CSI09:1,2016-08-09T02:00:00Z,29.1015,-89.9782,1011.27,11111222 
WAVCIS,ioos:station:WAVCIS:CSI09:1,2016-08-09T03:00:00Z,29.1015,-89.9782,1011.65,11111222 
WAVCIS,ioos:station:WAVCIS:CSI09:1,2016-08-09T04:00:00Z,29.1015,-89.9782,1011.87,11111222 
WAVCIS,ioos:station:WAVCIS:CSI09:1,2016-08-09T05:00:00Z,29.1015,-89.9782,1012.12,11111222 
WAVCIS,ioos:station:WAVCIS:CSI09:1,2016-08-09T06:00:00Z,29.1015,-89.9782,1011.85,11111222 
WAVCIS,ioos:station:WAVCIS:CSI09:1,2016-08-09T07:00:00Z,29.1015,-89.9782,1011.55,11111222 
WAVCIS,ioos:station:WAVCIS:CSI09:1,2016-08-09T08:00:00Z,29.1015,-89.9782,1011.88,11111222 
WAVCIS,ioos:station:WAVCIS:CSI09:1,2016-08-09T09:00:00Z,29.1015,-89.9782,1011.71,11111222 
WAVCIS,ioos:station:WAVCIS:CSI09:1,2016-08-09T10:00:00Z,29.1015,-89.9782,1011.77,11111222 
WAVCIS,ioos:station:WAVCIS:CSI09:1,2016-08-09T11:00:00Z,29.1015,-89.9782,1012.11,11111222 
WAVCIS,ioos:station:WAVCIS:CSI09:1,2016-08-09T12:00:00Z,29.1015,-89.9782,1012.58,11111222 
WAVCIS,ioos:station:WAVCIS:CSI09:1,2016-08-09T13:00:00Z,29.1015,-89.9782,1012.91,11111222 
WAVCIS,ioos:station:WAVCIS:CSI09:1,2016-08-09T14:00:00Z,29.1015,-89.9782,1013.68,11111222 
WAVCIS,ioos:station:WAVCIS:CSI09:1,2016-08-09T15:00:00Z,29.1015,-89.9782,1013.98,11111222 
WAVCIS,ioos:station:WAVCIS:CSI09:1,2016-08-09T16:00:00Z,29.1015,-89.9782,1014.38,11111222 
WAVCIS,ioos:station:WAVCIS:CSI09:1,2016-08-09T17:00:00Z,29.1015,-89.9782,1014.45,11111222 
WAVCIS,ioos:station:WAVCIS:CSI09:1,2016-08-09T18:00:00Z,29.1015,-89.9782,1013.8,11111222 
WAVCIS,ioos:station:WAVCIS:CSI09:1,2016-08-09T19:00:00Z,29.1015,-89.9782,1013.58,11111222 
WAVCIS,ioos:station:WAVCIS:CSI09:1,2016-08-09T20:00:00Z,29.1015,-89.9782,1012.96,11111222 
WAVCIS,ioos:station:WAVCIS:CSI09:1,2016-08-09T21:00:00Z,29.1015,-89.9782,1012.58,11111222 
WAVCIS,ioos:station:WAVCIS:CSI09:1,2016-08-09T22:00:00Z,29.1015,-89.9782,1012.35,11111222 
WAVCIS,ioos:station:WAVCIS:CSI09:1,2016-08-09T23:00:00Z,29.1015,-89.9782,1012.26,11111222 
WAVCIS,ioos:station:WAVCIS:CSI09:1,2016-08-10T00:00:00Z,29.1015,-89.9782,1012.27,11111222 
WAVCIS,ioos:station:WAVCIS:CSI09:1,2016-08-10T01:00:00Z,29.1015,-89.9782,1012.24,11111222 
WAVCIS,ioos:station:WAVCIS:CSI09:1,2016-08-10T02:00:00Z,29.1015,-89.9782,1013.0,11111222 
WAVCIS,ioos:station:WAVCIS:CSI09:1,2016-08-10T03:00:00Z,29.1015,-89.9782,1013.46,11111222 
WAVCIS,ioos:station:WAVCIS:CSI09:1,2016-08-10T04:00:00Z,29.1015,-89.9782,1013.75,11111222 
WAVCIS,ioos:station:WAVCIS:CSI09:1,2016-08-10T05:00:00Z,29.1015,-89.9782,1013.94,11111222 
WAVCIS,ioos:station:WAVCIS:CSI09:1,2016-08-10T06:00:00Z,29.1015,-89.9782,1013.64,11111222 
WAVCIS,ioos:station:WAVCIS:CSI09:1,2016-08-10T07:00:00Z,29.1015,-89.9782,1013.24,11111222 
WAVCIS,ioos:station:WAVCIS:CSI09:1,2016-08-10T08:00:00Z,29.1015,-89.9782,1013.31,11111222 
WAVCIS,ioos:station:WAVCIS:CSI09:1,2016-08-10T09:00:00Z,29.1015,-89.9782,1013.46,11111222 
WAVCIS,ioos:station:WAVCIS:CSI09:1,2016-08-10T10:00:00Z,29.1015,-89.9782,1013.26,11111222 
WAVCIS,ioos:station:WAVCIS:CSI09:1,2016-08-10T11:00:00Z,29.1015,-89.9782,1013.33,11111222 
WAVCIS,ioos:station:WAVCIS:CSI09:1,2016-08-10T12:00:00Z,29.1015,-89.9782,1014.26,11111222 
WAVCIS,ioos:station:WAVCIS:CSI09:1,2016-08-10T13:00:00Z,29.1015,-89.9782,1014.55,11111222 
WAVCIS,ioos:station:WAVCIS:CSI09:1,2016-08-10T14:00:00Z,29.1015,-89.9782,1014.92,11111222 
WAVCIS,ioos:station:WAVCIS:CSI09:1,2016-08-10T15:00:00Z,29.1015,-89.9782,1015.14,11111222 
WAVCIS,ioos:station:WAVCIS:CSI09:1,2016-08-10T16:00:00Z,29.1015,-89.9782,1016.0,11111222 
WAVCIS,ioos:station:WAVCIS:CSI09:1,2016-08-10T17:00:00Z,29.1015,-89.9782,1015.82,11111222 
WAVCIS,ioos:station:WAVCIS:CSI09:1,2016-08-10T18:00:00Z,29.1015,-89.9782,1015.68,11111222 
WAVCIS,ioos:station:WAVCIS:CSI09:1,2016-08-10T19:00:00Z,29.1015,-89.9782,1015.31,11111222 
WAVCIS,ioos:station:WAVCIS:CSI09:1,2016-08-10T20:00:00Z,29.1015,-89.9782,1014.65,11111222 
WAVCIS,ioos:station:WAVCIS:CSI09:1,2016-08-10T21:00:00Z,29.1015,-89.9782,1014.49,11111222 
WAVCIS,ioos:station:WAVCIS:CSI09:1,2016-08-10T22:00:00Z,29.1015,-89.9782,1014.24,11111222 
WAVCIS,ioos:station:WAVCIS:CSI09:1,2016-08-10T23:00:00Z,29.1015,-89.9782,1013.94,11111222 
WAVCIS,ioos:station:WAVCIS:CSI09:1,2016-08-11T00:00:00Z,29.1015,-89.9782,1013.79,11111222 
WAVCIS,ioos:station:WAVCIS:CSI09:1,2016-08-11T01:00:00Z,29.1015,-89.9782,1014.01,11111222 
WAVCIS,ioos:station:WAVCIS:CSI09:1,2016-08-11T02:00:00Z,29.1015,-89.9782,1014.7,11111222 
WAVCIS,ioos:station:WAVCIS:CSI09:1,2016-08-11T03:00:00Z,29.1015,-89.9782,1014.67,11111222 
WAVCIS,ioos:station:WAVCIS:CSI09:1,2016-08-11T04:00:00Z,29.1015,-89.9782,1014.61,11111222 
WAVCIS,ioos:station:WAVCIS:CSI09:1,2016-08-11T05:00:00Z,29.1015,-89.9782,1014.77,11111222 
WAVCIS,ioos:station:WAVCIS:CSI09:1,2016-08-11T06:00:00Z,29.1015,-89.9782,1014.9,11111222 
WAVCIS,ioos:station:WAVCIS:CSI09:1,2016-08-11T07:00:00Z,29.1015,-89.9782,1014.32,11111222 
WAVCIS,ioos:station:WAVCIS:CSI09:1,2016-08-11T08:00:00Z,29.1015,-89.9782,1014.4,11111222 
WAVCIS,ioos:station:WAVCIS:CSI09:1,2016-08-11T09:00:00Z,29.1015,-89.9782,1014.03,11111222 
WAVCIS,ioos:station:WAVCIS:CSI09:1,2016-08-11T10:00:00Z,29.1015,-89.9782,1014.16,11111222 
WAVCIS,ioos:station:WAVCIS:CSI09:1,2016-08-11T11:00:00Z,29.1015,-89.9782,1014.4,11111222 
WAVCIS,ioos:station:WAVCIS:CSI09:1,2016-08-11T12:00:00Z,29.1015,-89.9782,1015.22,11111222 
WAVCIS,ioos:station:WAVCIS:CSI09:1,2016-08-11T13:00:00Z,29.1015,-89.9782,1015.61,11111222 
WAVCIS,ioos:station:WAVCIS:CSI09:1,2016-08-11T14:00:00Z,29.1015,-89.9782,1015.76,11111222 
WAVCIS,ioos:station:WAVCIS:CSI09:1,2016-08-11T15:00:00Z,29.1015,-89.9782,1016.19,11111222 
WAVCIS,ioos:station:WAVCIS:CSI09:1,2016-08-11T16:00:00Z,29.1015,-89.9782,1016.2,11111222 
WAVCIS,ioos:station:WAVCIS:CSI09:1,2016-08-11T17:00:00Z,29.1015,-89.9782,1016.11,11111222 
WAVCIS,ioos:station:WAVCIS:CSI09:1,2016-08-11T18:00:00Z,29.1015,-89.9782,1016.07,11111222 
WAVCIS,ioos:station:WAVCIS:CSI09:1,2016-08-11T19:00:00Z,29.1015,-89.9782,1015.68,11111222 
WAVCIS,ioos:station:WAVCIS:CSI09:1,2016-08-11T20:00:00Z,29.1015,-89.9782,1014.47,11111222 
WAVCIS,ioos:station:WAVCIS:CSI09:1,2016-08-11T21:00:00Z,29.1015,-89.9782,1014.5,11111222 
WAVCIS,ioos:station:WAVCIS:CSI09:1,2016-08-11T22:00:00Z,29.1015,-89.9782,1013.91,11111222 